Altoona, PA

1:45 AM EDT on August 21, 2017 (GMT -0400)
Altoona-Blair County

Weather History for KAOO - May, 2013

Change the Weather History Date:

Friday, May 24, 2013

  Actual Average Record
Temperature  
Mean Temperature 52 °F 60 °F  
Max Temperature 61 °F 71 °F 86 °F (1962)
Min Temperature 42 °F 50 °F 30 °F (1963)
Degree Days  
Heating Degree Days 13 6  
Month to date heating degree days 206  
Since 1 July heating degree days 6110  
Cooling Degree Days 0 1  
Month to date cooling degree days 14  
Year to date cooling degree days 20  
Growing Degree Days 2 (Base 50)    
Moisture  
Dew Point 39 °F    
Average Humidity 70    
Maximum Humidity 88    
Minimum Humidity 54    
Precipitation  
Precipitation 0.00 in 0.13 in 1.09 in (1978)
Month to date precipitation 2.87  
Year to date precipitation 13.34  
Sea Level Pressure  
Sea Level Pressure 30.01 in    
Wind  
Wind Speed 12 mph (NW)    
Max Wind Speed 22 mph    
Max Gust Speed 34 mph    
Visibility 10 miles    
Events Rain    
T = Trace of Precipitation, MM = Missing Value Source: NWS Daily Summary

Daily Weather History Graph

Daily Weather History Graph

Search for Another Location

Airport or City:

Trip Planner

Search our weather history database for the weather conditions in past years. The results will help you decide how hot, cold, wet, or windy it might be!

Date:

Astronomy

May. 24, 2013 Rise Set
Actual Time 5:49 AM EDT 8:30 PM EDT
Civil Twilight 5:18 AM EDT 9:02 PM EDT
Nautical Twilight 4:38 AM EDT 9:42 PM EDT
Astronomical Twilight 3:53 AM EDT 10:27 PM EDT
Moon 8:10 PM EDT (5/24) 5:20 AM EDT (5/24)
Length of Visible Light 15h 44m
Length of Day
14h 41m
Full, 100% of the Moon is Illuminated
May 24
Full
May 25
Full
May 31
Last Quarter
Jun 8
New
Jun 16
First Quarter

Hourly Weather History & Observations

Time (EDT) Temp. Windchill Dew Point Humidity Pressure Visibility Wind Dir Wind Speed Gust Speed Precip Events Conditions
12:53 AM 61.0 °F - 55.0 °F 81% 29.80 in 10.0 mi WNW 4.6 mph - 0.00 in   Overcast
1:53 AM 61.0 °F - 55.0 °F 81% 29.80 in 10.0 mi WNW 4.6 mph - N/A   Overcast
2:02 AM 60.8 °F - 53.6 °F 77% 29.82 in 10.0 mi WNW 5.8 mph - N/A   Overcast
2:53 AM 57.0 °F - 52.0 °F 83% 29.80 in 10.0 mi WNW 15.0 mph 23.0 mph N/A   Overcast
3:00 AM 55.4 °F - 51.8 °F 88% 29.82 in 10.0 mi WNW 16.1 mph - N/A   Overcast
3:07 AM 55.4 °F - 51.8 °F 88% 29.82 in 10.0 mi NW 15.0 mph - N/A   Overcast
3:37 AM 53.6 °F - 48.2 °F 82% 29.83 in 10.0 mi WNW 15.0 mph 26.5 mph N/A   Overcast
3:53 AM 53.1 °F - 46.0 °F 77% 29.82 in 10.0 mi WNW 17.3 mph 27.6 mph N/A   Overcast
4:53 AM 50.0 °F - 44.1 °F 80% 29.86 in 10.0 mi NW 11.5 mph 23.0 mph N/A   Overcast
5:53 AM 48.0 °F - 42.1 °F 80% 29.91 in 10.0 mi NW 12.7 mph 21.9 mph N/A   Overcast
6:53 AM 46.0 °F 41.0 °F 41.0 °F 83% 29.94 in 10.0 mi NW 10.4 mph 23.0 mph 0.00 in   Overcast
7:53 AM 45.0 °F 38.2 °F 39.0 °F 80% 29.97 in 10.0 mi NNW 15.0 mph 25.3 mph N/A   Overcast
8:53 AM 44.1 °F 36.2 °F 34.0 °F 68% 30.01 in 10.0 mi NNW 18.4 mph 28.8 mph N/A   Overcast
9:53 AM 45.0 °F 37.6 °F 35.1 °F 68% 30.04 in 10.0 mi NNW 17.3 mph 24.2 mph N/A   Overcast
10:53 AM 45.0 °F 37.4 °F 36.0 °F 71% 30.05 in 10.0 mi NW 18.4 mph 26.5 mph 0.00 in Rain Light Rain
11:53 AM 45.0 °F 37.9 °F 37.0 °F 74% 30.06 in 10.0 mi NNW 16.1 mph 21.9 mph 0.00 in   Overcast
12:53 PM 46.0 °F 39.3 °F 36.0 °F 68% 30.06 in 10.0 mi NW 16.1 mph 24.2 mph N/A   Overcast
1:53 PM 46.9 °F - 36.0 °F 66% 30.08 in 10.0 mi NW 16.1 mph 27.6 mph N/A   Overcast
2:53 PM 48.9 °F - 35.1 °F 59% 30.09 in 10.0 mi NNW 17.3 mph 33.4 mph N/A   Overcast
3:53 PM 46.9 °F - 34.0 °F 61% 30.12 in 10.0 mi NW 17.3 mph 26.5 mph N/A   Overcast
4:40 PM 48.2 °F - 33.8 °F 58% 30.10 in 10.0 mi NW 20.7 mph 26.5 mph N/A   Overcast
4:53 PM 48.0 °F - 34.0 °F 58% 30.13 in 10.0 mi NNW 18.4 mph 29.9 mph N/A   Overcast
5:53 PM 48.0 °F - 32.0 °F 54% 30.14 in 10.0 mi NNW 17.3 mph 29.9 mph N/A   Overcast
6:53 PM 46.0 °F 38.0 °F 30.9 °F 56% 30.17 in 10.0 mi NW 21.9 mph 34.5 mph N/A   Overcast
7:53 PM 45.0 °F 37.9 °F 30.9 °F 58% 30.18 in 10.0 mi NNW 16.1 mph 24.2 mph N/A   Overcast
8:53 PM 44.1 °F 37.7 °F 30.9 °F 60% 30.22 in 10.0 mi NNW 12.7 mph - N/A   Overcast
9:53 PM 43.0 °F 36.8 °F 30.0 °F 60% 30.22 in 10.0 mi NW 11.5 mph 20.7 mph N/A   Overcast
10:53 PM 43.0 °F 37.7 °F 30.0 °F 60% 30.23 in 10.0 mi NW 9.2 mph - N/A   Overcast
11:53 PM 42.1 °F 37.7 °F 30.0 °F 62% 30.23 in 10.0 mi Variable 6.9 mph - N/A   Overcast